This is the latest recevied weather packets stored in our database for station/object EB1AYW-10. If no packets are shown the sender has not sent any weather packets the latest 10 day(s).
| Time | Temp. | Humidity | Pressure | Rain* | Wind** | Luminosity | Snow |
|---|---|---|---|---|---|---|---|
| 1777746404 | 23.33° C | 43% | 922.9 hPa | - | - | - | - |
| 1777745502 | 23.33° C | 42% | 922.7 hPa | - | - | - | - |
| 1777744602 | 23.33° C | 42% | 922.8 hPa | - | - | - | - |
| 1777743702 | 23.89° C | 42% | 922.7 hPa | - | - | - | - |
| 1777742802 | 23.89° C | 43% | 922.7 hPa | - | - | - | - |
| 1777741902 | 23.89° C | 43% | 922.8 hPa | - | - | - | - |
| 1777741002 | 23.89° C | 43% | 922.9 hPa | - | - | - | - |
| 1777740102 | 23.89° C | 43% | 923 hPa | - | - | - | - |
| 1777739202 | 23.89° C | 43% | 923.1 hPa | - | - | - | - |
| 1777736498 | 24.44° C | 43% | 923.3 hPa | - | - | - | - |
| 1777735599 | 24.44° C | 43% | 923.4 hPa | - | - | - | - |
| 1777734698 | 24.44° C | 42% | 923.6 hPa | - | - | - | - |
| 1777733802 | 24.44° C | 42% | 923.9 hPa | - | - | - | - |
| 1777732904 | 25° C | 42% | 923.8 hPa | - | - | - | - |
| 1777732004 | 25° C | 42% | 923.8 hPa | - | - | - | - |
| 1777731103 | 25° C | 42% | 923.8 hPa | - | - | - | - |
| 1777730203 | 25° C | 43% | 924 hPa | - | - | - | - |
| 1777729303 | 24.44° C | 43% | 923.9 hPa | - | - | - | - |
| 1777728403 | 24.44° C | 44% | 923.8 hPa | - | - | - | - |
| 1777727502 | 24.44° C | 44% | 923.9 hPa | - | - | - | - |
| 1777726603 | 24.44° C | 45% | 924.1 hPa | - | - | - | - |
| 1777725703 | 24.44° C | 45% | 924.2 hPa | - | - | - | - |
| 1777724802 | 23.89° C | 45% | 924.3 hPa | - | - | - | - |
| 1777723902 | 23.89° C | 44% | 924.7 hPa | - | - | - | - |
| 1777722102 | 23.33° C | 46% | 924.9 hPa | - | - | - | - |
* Rain since midnight (hover to see other rain measurements)
** Current wind speed in m/s (hover to see current wind gust speed)